Overview Statistics Trail Chart Weather Telemetry Raw packets
 

This is the latest recevied weather packets stored in our database for station/object DG6YGE-6. If no packets are shown the sender has not sent any weather packets the latest 10 day(s).

<< 26 27 28 29 30 31 32 >>
Time Temp. Humidity Pressure Rain* Wind** Luminosity Snow
1788267551 17.78° C 92% 1017.8 hPa 0 mm - 344 W/m² -
1788266951 17.22° C 92% 1017.8 hPa 0 mm - 195 W/m² -
1788266352 17.22° C 92% 1017.9 hPa 0 mm - 238 W/m² -
1788265752 17.22° C 92% 1017.8 hPa 0.25 mm - 281 W/m² -
1788265151 17.22° C 92% 1017.8 hPa 1.78 mm - 292 W/m² -
1788264552 17.22° C 91% 1017.8 hPa 2.29 mm - 183 W/m² -
1788263951 17.22° C 89% 1017.8 hPa 2.54 mm - 213 W/m² -
1788263351 17.22° C 89% 1017.8 hPa 2.54 mm - 262 W/m² -
1788262751 17.22° C 89% 1017.9 hPa 2.54 mm - 619 W/m² -
1788262151 17.78° C 87% 1017.9 hPa 2.29 mm - 78 W/m² -
1788261551 18.33° C 86% 1017.8 hPa 1.02 mm - 101 W/m² -
1788260951 18.89° C 83% 1017.7 hPa 0.51 mm - 56 W/m² -
1788260352 18.89° C 83% 1017.6 hPa 0 mm - 237 W/m² -
1788259751 18.89° C 83% 1017.7 hPa 0 mm - 282 W/m² -
1788259151 18.89° C 83% 1017.6 hPa 0 mm - 274 W/m² -
1788258551 18.33° C 84% 1017.5 hPa 0 mm - 363 W/m² -
1788257951 18.33° C 84% 1017.6 hPa 0 mm - 297 W/m² -
1788257351 18.89° C 84% 1017.7 hPa 0 mm - 297 W/m² -
1788256752 18.89° C 84% 1017.5 hPa 0 mm - 302 W/m² -
1788256151 18.33° C 86% 1017.6 hPa 0 mm - 380 W/m² -
1788255551 18.33° C 86% 1017.5 hPa 0 mm - 554 W/m² -
1788254951 17.78° C 87% 1017.6 hPa 0 mm - 197 W/m² -
1788254351 17.78° C 87% 1017.5 hPa 0 mm - 265 W/m² -
1788253751 17.78° C 88% 1017.4 hPa 0 mm - 252 W/m² -
1788253152 17.22° C 88% 1017.4 hPa 0 mm - 275 W/m² -

* Rain latest hour (hover to see other rain measurements)
** Current wind speed in m/s (hover to see current wind gust speed)